This is the latest recevied weather packets stored in our database for station/object AJ7DN. If no packets are shown the sender has not sent any weather packets the latest 1 day(s).
| Time | Temp. | Humidity | Pressure | Rain* | Wind** | Luminosity | Snow |
|---|---|---|---|---|---|---|---|
| 1778006445 | 16.67° C | 72% | 1021.3 hPa | 0 mm | 0 m/s | 304 W/m² | - |
| 1778006141 | 17.22° C | 71% | 1021.1 hPa | 0 mm | 0 m/s | 282 W/m² | - |
| 1778005839 | 16.67° C | 72% | 1021 hPa | 0 mm | 0 m/s | 287 W/m² | - |
| 1778005535 | 16.67° C | 72% | 1021.3 hPa | 0 mm | 0 m/s | 407 W/m² | - |
| 1778005232 | 16.67° C | 72% | 1021 hPa | 0 mm | 0 m/s | 315 W/m² | - |
| 1778004929 | 17.22° C | 73% | 1020.8 hPa | 0 mm | 0 m/s | 325 W/m² | - |
| 1778004626 | 16.67° C | 72% | 1021.1 hPa | 0 mm | 0 m/s | 565 W/m² | - |
| 1778004321 | 16.67° C | 73% | 1021.2 hPa | 0 mm | 0.45 m/s, 51° | 432 W/m² | - |
| 1778004021 | 16.11° C | 75% | 1020.9 hPa | 0 mm | 0 m/s | 383 W/m² | - |
| 1778003714 | 15.56° C | 76% | 1021 hPa | 0 mm | 0 m/s | 283 W/m² | - |
| 1778003412 | 15.56° C | 75% | 1021.2 hPa | 0 mm | 0.45 m/s, 60° | 263 W/m² | - |
| 1778003109 | 15° C | 77% | 1021.1 hPa | 0 mm | 0 m/s | 266 W/m² | - |
| 1778002804 | 15° C | 79% | 1021 hPa | 0 mm | 0.45 m/s, 244° | 220 W/m² | - |
| 1778002501 | 15° C | 78% | 1021.2 hPa | 0 mm | 0 m/s | 181 W/m² | - |
| 1778002198 | 15° C | 78% | 1021.3 hPa | 0 mm | 0 m/s | 199 W/m² | - |
| 1778001897 | 15° C | 78% | 1021.1 hPa | 0 mm | 0 m/s | 189 W/m² | - |
| 1778001596 | 15° C | 78% | 1020.9 hPa | 0 mm | 0 m/s | 176 W/m² | - |
| 1778001293 | 15° C | 78% | 1020.8 hPa | 0 mm | 0 m/s | 168 W/m² | - |
| 1778000990 | 14.44° C | 79% | 1020.9 hPa | 0 mm | 0 m/s | 198 W/m² | - |
| 1778000687 | 14.44° C | 80% | 1020.8 hPa | 0 mm | 0.45 m/s, 70° | 173 W/m² | - |
| 1778000382 | 14.44° C | 79% | 1021 hPa | 0 mm | 0 m/s | 131 W/m² | - |
| 1778000078 | 14.44° C | 79% | 1020.7 hPa | 0 mm | 0 m/s | 147 W/m² | - |
| 1777999774 | 14.44° C | 81% | 1020.9 hPa | 0 mm | 0.45 m/s, 187° | 128 W/m² | - |
| 1777999470 | 14.44° C | 80% | 1021 hPa | 0 mm | 0 m/s | 115 W/m² | - |
| 1777999168 | 14.44° C | 81% | 1020.8 hPa | 0 mm | 0 m/s | 108 W/m² | - |
* Rain latest hour (hover to see other rain measurements)
** Current wind speed in m/s (hover to see current wind gust speed)